Simultaneous Nadir Overpasses (SNOs) Predictions

Prediction of SNOs between NPP and TERRA Satellite Orbit:

Table of predicted SNOs for the next 14.0 days since TLE Epoch: 12/26/2015
Index Date (NPP) Time (NPP) Lat,Lon (NPP) SZA (NPP ) Date (TERRA) Time (TERRA) Lat,Lon (TERRA) SZA (TERRA ) Distance(km) Time Diff (sec)
1 12/29/2015 01:17:02 68.77, 159.43 91.91 12/29/2015 01:18:13 68.74, 159.69 91.88 11.25 71
2 12/29/2015 02:07:41 -68.52, -32.93 88.34 12/29/2015 02:07:45 -68.52, -32.94 88.35 0.35 4
3 12/29/2015 02:58:25 68.40, 134.54 91.54 12/29/2015 02:57:12 68.41, 134.57 91.55 1.80 73
4 12/31/2015 17:33:52 68.60, -84.58 91.57 12/31/2015 17:34:46 68.60, -84.61 91.57 1.20 54
5 12/31/2015 18:24:34 -68.51, 82.85 88.52 12/31/2015 18:24:16 -68.50, 82.90 88.54 2.89 18
6 12/31/2015 19:15:04 67.63,-108.74 90.59 12/31/2015 19:13:55 67.71,-110.38 90.68 69.97 69
7 01/03/2016 09:50:44 68.54, 31.27 91.29 01/03/2016 09:51:17 68.55, 31.21 91.30 2.80 33
8 01/03/2016 10:41:26 -68.46,-161.30 88.80 01/03/2016 10:40:47 -68.45,-161.28 88.80 1.11 39
9 01/06/2016 01:17:03 -69.19, -21.15 88.31 01/06/2016 01:18:13 -69.06, -19.93 88.48 50.97 70
10 01/06/2016 02:07:37 68.54, 147.04 91.02 01/06/2016 02:07:47 68.55, 147.08 91.02 1.99 10
11 01/06/2016 02:58:17 -68.40, -45.46 89.13 01/06/2016 02:57:17 -68.40, -45.47 89.14 0.81 60
12 01/08/2016 17:33:44 -68.61, 95.41 89.24 01/08/2016 17:34:50 -68.60, 95.37 89.26 2.61 66
13 01/08/2016 18:24:28 68.49, -97.12
